SCP
0 0 0 0 0 0 0 0 0 0 0 0 0 0 0 0 0 0 0 0 0 0 -0 -0 -0 -0 -0 -0 -0 0 0 0 0 0 0 0 0 0 0 0 0 0 0 0
0 0 0 0 0 0 0 0 0 0 0 0 0 0 0 0 0 0 0 0 0 -0 -0 -0 -0 0 -0 -0 -0 0 0 0 0 0 0 0 0 0 0 0 0 0 0 0
0 0 0 0 0 0 0 0 0 0 0 0 0 0 0 0 0 0 0 0 0 -0 -0 0 0 0 0 0 0 0 0 0 0 0 0 0 0 0 0 0 0 0 0 0
0 0 0 0 0 0 0 0 0 0 0 0 0 0 0 0 0 0 0 0 -0 0 0 0 0 0 0 0 0 0 0 0 0 0 0 0 0 0 0 0 0 0 0 0
0 0 0 0 0 0 0 0 0 0 0 0 0 0 0 0 0 0 0 0 0 0 0 0 0 0 0 0 0 0 0 0 0 0 0 0 0 0 0 0 0 0 0 0
0 0 0 0 0 0 0 0 0 0 0 0 0 0 0 0 0 0 0 0 0 0 0 0 0 0 0 0 0 0 0 0 0 0 0 0 0 0 0 0 0 0 0 0
0 0 0 0 0 0 0 0 0 0 0 0 0 0 0 0 0 0 0 0 0 0 0 0 0 0 0 0 0 0 0 0 0 0 0 0 0 0 0 0 0 0 0 0
0 0 0 0 0 0 0 0 0 0 0 0 0 0 0 0 0 0 0 0 0 0 0 0 0 0 0 0 0 0 0 0 0 0 0 0 0 0 0 0 0 0 0 0
0 0 0 0 0 0 0 0 0 0 0 0 0 0 0 0 0 0 0 0 0 0 0 0 0 0 0 0 0 0 0 0 0 0 0 0 0 0 0 0 0 0 0 0
0 0 0 0 0 0 0 0 0 0 0 0 0 0 0 0 0 0 0 0 0 0 0 0 0 0 0 0 0 0 0 0 0 0 0 0 0 0 0 0 0 0 0 0
0 0 0 0 0 0 0 0 0 0 0 0 0 0 0 0 0 0 0 0 0 0 0 0 0 0 0 0 0 0 0 0 0 0 0 0 0 0 0 0 0 0 0 0
0 0 0 0 0 0 0 0 0 0 0 0 0 0 0 0 0 0 0 0 0 0 0 0 0 0 0 0 0 0 0 0 0 0 0 0 0 0 0 0 0 0 0 0
0 0 0 0 0 0 0 0 0 0 0 0 0 0 0 0 0 0 0 0 0 0 0 0 0 0 0 0 0 0 0 0 0 0 0 0 0 0 0 0 0 0 0 0
0 0 0 0 0 0 0 0 0 0 0 0 0 0 0 0 0 0 0 0 0 0 0 0 0 0 0 0 0 0 0 0 0 0 0 0 0 0 0 0 0 0 0 0
0 0 0 0 0 0 0 0 0 0 0 0 0 0 0 0 0 0 0 0 0 0 0 0 0 0 0 0 0 0 0 0 0 0 0 0 0 0 0 0 0 0 0 0
0 0 0 0 0 0 0 0 0 0 0 0 0 0 0 0 0 0 0 0 0 0 0 0 0 0 0 0 0 0 0 0 0 0 0 0 0 0 0 0 0 0 0 0
0 0 0 0 0 0 0 0 0 0 0 0 0 0 0 0 0 0 0 0 0 0 0 0 0 0 0 0 0 0 0 0 0 0 0 0 0 0 0 0 0 0 0 0
0 0 0 0 0 0 0 0 0 0 0 0 0 0 0 0 0 0 0 0 0 0 0 0 0 0 0 0 0 0 0 0 0 0 0 0 0 0 0 0 0 0 0 0
0 0 0 0 0 0 0 0 0 0 0 0 0 0 0 0 0 0 0 0 0 0 0 0 0 0 0 0 0 0 0 0 0 0 0 0 0 0 0 0 0 0 0 0
0 0 0 0 0 0 0 0 0 0 0 0 0 0 0 0 0 0 0 0 0 0 0 0 0 0 0 0 0 0 0 0 0 0 0 0 0 0 0 0 0 0 0 0
0 0 0 0 0 0 0 0 0 0 0 0 0 0 0 0 0 0 0 0 0 0 0 0 0 0 0 0 0 0 0 0 0 0 0 0 0 0 0 0 0 0 0 0
0 0 0 0 0 0 0 0 0 0 0 0 0 0 0 0 0 0 0 0 -0 -0 -0 0 0 0 0 0 0 0 0 0 0 0 0 0 0 0 0 0 0 0 0 0
0 0 0 0 0 0 0 0 0 0 0 0 0 0 0 0 0 0 0 -0 -0 -0 -0 0 0 -0 0 -0 0 0 0 0 0 0 0 0 0 0 0 0 0 0 0 0
0 0 0 0 0 0 0 0 0 0 0 0 0 0 0 0 0 0 0 -0 -0 -0 -0 0 -0 -0 -0 0 0 0 0 0 0 0 0 0 0 0 0 0 0 0 0 0
0 0 0 0 0 0 0 0 0 0 0 0 0 0 0 0 0 0 -0 -0 -0 -0 -0 -0 -0 -0 -0 -0 0 0 0 0 0 0 0 0 0 0 0 0 0 0 0 0
0 0 0 0 0 0 0 0 0 0 0 0 0 0 0 0 0 0 0 0 -0 -0 -0 -0 -0 -0 -0 -0 0 0 0 0 0 0 0 0 0 0 0 0 0 0 0 0
Wind_Speed_500mb
26 21 10 8 9 6 5 5 6 3 8 12 21 22 18 26 47 53 61 64 65 67 68 67 67 69 68 66 64 61 62 68 67 63 63 57 48 48 53 56 56 54 52 47
13 12 9 8 15 5 2 1 5 6 6 8 20 20 16 29 34 41 55 62 62 71 75 74 72 69 71 72 74 67 64 66 65 64 61 61 59 56 56 60 62 63 58 52
14 8 11 6 10 22 7 4 9 17 6 7 26 10 2 11 30 52 53 53 62 65 73 91 97 94 91 84 79 74 72 74 73 67 66 62 65 70 72 71 68 63 55 57
14 15 9 11 12 13 9 4 20 21 7 3 5 5 8 17 26 51 61 73 77 90 91 84 86 90 87 93 90 86 84 81 76 73 73 71 72 73 73 70 69 63 57 53
1 13 18 14 8 9 12 33 13 2 6 6 6 6 9 10 37 44 62 70 72 74 73 75 77 86 97 94 95 94 92 88 86 83 78 76 75 73 75 78 77 75 75 73
6 8 8 5 7 2 34 10 5 3 2 4 8 9 8 16 32 41 56 70 77 86 92 99 105 102 99 100 100 98 101 100 96 87 89 86 84 83 80 77 76 76 75 74
11 6 12 12 9 10 22 15 8 7 7 7 9 7 4 17 31 38 49 73 82 81 82 88 94 104 109 108 104 103 99 100 95 96 96 90 88 89 89 85 83 80 79 78
9 8 15 27 8 7 10 11 6 11 12 15 17 4 5 17 48 78 75 77 84 87 90 92 95 99 103 107 109 108 103 102 100 96 96 92 88 89 86 84 85 88 83 83
8 4 3 19 22 8 10 13 4 8 3 6 10 3 8 33 65 75 85 93 97 100 101 103 107 104 104 107 108 105 104 103 102 99 94 93 89 81 87 81 83 84 85 85
3 7 4 6 6 29 17 7 5 9 13 14 6 9 11 38 49 59 79 94 100 102 104 109 110 110 112 109 106 104 101 100 100 95 95 92 88 84 82 82 80 79 78 76
2 3 2 6 15 7 10 7 9 6 2 5 11 11 4 33 42 43 78 91 93 100 106 108 113 112 111 108 106 105 104 102 108 102 97 94 88 84 80 80 77 73 74 70
5 5 5 5 3 19 9 6 4 6 6 2 1 12 7 55 60 61 84 91 98 103 109 112 112 111 112 111 112 109 110 109 109 106 101 94 86 79 74 67 64 60 57 58
1 5 3 6 3 6 10 7 7 8 4 2 2 15 51 65 62 84 86 97 101 104 109 114 115 114 114 117 119 119 117 118 113 108 104 99 89 79 73 67 63 58 58 60
4 5 5 5 2 2 3 6 5 7 2 5 16 39 47 49 51 89 94 98 99 103 107 114 117 116 117 121 123 126 128 126 120 113 105 98 92 86 77 65 61 58 56 56
6 5 2 7 7 2 3 4 3 4 5 4 28 37 40 38 63 81 88 94 96 104 111 113 117 119 121 124 126 131 129 128 119 111 106 97 85 78 67 56 54 52 51 52
5 4 3 5 7 5 4 4 5 2 5 16 25 36 26 72 69 75 90 90 91 103 110 115 116 119 126 127 128 135 131 124 114 112 106 88 75 63 59 64 61 55 49 31
5 5 5 1 4 4 3 4 7 8 9 18 13 18 70 70 75 79 87 79 96 102 110 115 116 115 122 126 129 127 125 118 113 105 81 72 72 68 60 70 82 77 59 20
7 6 5 2 0 5 3 5 9 16 21 9 12 38 52 68 80 77 61 86 97 103 108 112 114 117 125 128 130 127 121 115 108 85 76 75 73 69 76 88 90 91 91 77
14 8 6 4 1 3 1 1 5 5 14 8 24 58 59 71 72 62 87 104 98 99 103 106 108 114 120 126 129 123 120 114 96 92 76 65 60 73 82 87 87 88 73 82
16 17 7 4 3 1 5 7 11 11 6 6 42 55 65 65 35 48 108 103 102 102 100 107 109 110 117 123 123 118 116 108 101 93 78 65 63 67 76 83 85 88 100 102
5 6 6 3 3 9 10 14 11 6 9 56 48 56 55 41 50 82 96 104 99 99 98 101 104 107 114 118 117 113 105 100 94 90 79 67 63 65 70 75 84 89 97 102
7 8 4 5 4 6 7 1 3 6 37 46 54 59 55 68 80 83 92 96 102 103 103 102 102 106 109 109 109 102 100 92 79 81 87 75 71 69 72 78 80 88 94 101
2 8 6 11 6 4 6 10 4 26 38 45 49 56 60 72 81 87 93 94 98 90 92 95 99 101 101 101 97 95 90 76 64 74 81 87 85 85 84 86 85 89 89 90
4 8 3 4 1 6 13 13 7 36 40 40 43 53 61 70 78 83 88 90 98 91 87 93 95 97 100 96 90 87 78 69 60 63 70 76 79 82 81 81 82 83 84 84
5 17 8 5 11 7 11 17 29 34 31 41 47 52 58 65 70 75 81 83 95 87 82 88 87 87 90 87 84 80 73 69 58 51 56 62 66 71 81 90 84 81 78 77
21 15 8 6 10 3 9 25 28 28 36 40 47 58 57 58 67 71 75 75 90 87 81 86 78 79 82 79 76 72 69 66 61 54 50 52 58 60 61 65 74 76 75 75
Wind_Direction_500mb
32 60 48 28 355 300 259 240 297 19 33 74 99 109 74 54 40 27 17 8 359 354 347 342 340 339 338 342 341 335 333 333 331 322 326 324 308 292 285 287 292 298 304 297
41 57 334 274 348 337 264 241 352 311 47 71 127 107 85 52 39 23 11 1 352 349 346 346 343 341 341 340 342 338 333 330 330 325 321 317 313 302 295 287 289 292 292 291
83 334 328 8 12 12 8 52 343 300 327 56 129 166 338 2 15 13 7 357 355 349 346 349 350 349 347 345 342 338 333 329 326 325 319 310 301 297 295 293 293 290 283 281
70 3 13 22 49 17 330 314 315 294 221 214 188 297 37 354 359 1 359 356 351 351 346 343 343 341 339 340 339 335 332 328 325 323 320 316 311 303 297 296 291 287 281 274
341 21 15 20 340 0 273 314 301 264 187 136 165 280 11 340 358 352 353 349 343 339 337 334 335 335 339 341 338 335 331 328 327 322 320 316 310 304 301 296 293 287 286 283
54 45 57 285 304 26 310 332 83 77 159 163 123 3 57 21 346 339 345 348 343 340 338 339 341 337 334 333 332 333 331 324 323 316 313 310 310 309 306 300 299 295 290 289
348 36 339 12 348 10 15 352 337 330 345 357 14 347 117 17 353 339 337 344 342 337 333 330 330 330 329 328 325 321 318 314 314 313 310 306 303 302 301 302 300 297 296 293
29 320 15 343 51 309 21 29 49 313 312 318 345 322 73 20 344 354 344 338 337 337 335 330 327 326 324 323 322 323 320 316 315 312 307 305 302 297 294 290 291 293 291 292
13 272 187 60 43 358 354 35 350 280 8 302 324 9 118 348 358 346 340 339 338 335 333 329 329 328 325 325 324 323 320 317 315 312 309 305 302 295 293 287 287 283 284 287
179 324 52 4 20 34 72 339 5 23 346 315 357 294 332 354 350 340 339 333 331 330 331 330 329 328 326 327 325 323 320 316 313 312 311 307 302 297 295 292 286 282 280 275
57 87 33 55 23 354 7 33 41 117 53 290 314 322 163 344 345 329 329 328 328 328 328 328 327 328 329 329 327 323 322 320 320 319 322 317 315 312 307 297 295 289 284 275
9 120 48 98 87 75 71 85 71 96 306 65 207 276 268 341 330 329 326 327 328 330 328 328 329 330 332 331 329 326 327 325 325 327 325 324 323 322 316 310 304 302 294 291
126 33 2 171 259 39 56 49 86 94 88 252 319 292 326 325 331 332 330 329 326 329 328 330 332 333 333 331 331 330 329 331 334 332 329 328 326 324 322 316 311 303 297 294
106 79 111 204 85 190 19 81 75 82 75 267 265 301 318 328 333 328 328 325 325 329 331 332 332 333 333 332 332 333 333 337 337 337 334 331 332 328 322 315 306 299 291 285
70 101 43 76 70 116 127 93 74 137 219 226 309 306 309 323 323 321 323 325 328 331 332 333 332 333 333 333 334 336 337 342 346 345 346 347 347 345 341 334 322 311 295 279
9 137 102 70 351 189 129 340 1 202 253 273 296 301 317 319 324 329 327 325 328 331 332 331 333 334 335 334 335 339 343 350 355 355 352 352 355 354 351 350 340 339 324 301
64 98 54 3 1 106 58 240 312 310 282 292 304 321 320 326 332 328 319 327 331 332 332 333 334 333 334 334 339 341 349 357 359 357 3 11 9 8 16 25 21 24 35 63
111 85 58 227 297 28 170 247 251 285 289 290 312 320 324 317 318 318 333 332 333 334 333 335 336 336 337 341 348 353 358 0 0 3 13 17 18 31 39 37 36 52 64 63
65 110 76 81 258 344 323 311 308 337 306 215 332 324 329 326 324 332 340 339 333 333 335 336 338 337 340 350 356 359 3 5 9 16 20 17 35 41 40 40 45 56 63 68
60 64 109 93 71 258 207 271 340 158 284 213 336 326 326 335 338 325 332 334 333 339 341 341 342 342 350 358 1 4 7 11 12 14 29 36 42 50 52 52 52 56 62 62
20 16 96 113 238 285 246 301 338 47 295 324 330 324 324 321 314 315 328 336 344 341 343 346 346 347 356 3 7 10 15 18 20 29 33 39 48 56 62 65 68 70 75 76
183 132 160 101 57 330 193 341 102 283 312 320 332 330 325 326 331 334 338 342 348 345 345 350 347 353 3 9 12 19 20 22 27 40 44 47 51 55 61 67 70 75 79 78
286 190 179 176 214 167 276 246 299 344 327 327 330 336 342 340 339 342 342 346 349 346 345 350 351 355 7 13 19 20 21 24 32 46 48 52 57 60 62 63 67 69 73 74
226 194 157 70 173 233 310 315 319 332 330 336 341 343 344 342 346 344 347 350 351 351 347 350 356 359 4 13 21 24 22 24 35 49 56 56 55 60 61 65 66 66 68 70
174 156 164 272 271 297 100 4 336 337 345 344 345 347 348 345 348 348 353 353 354 349 348 352 360 1 6 12 20 24 24 23 28 43 54 58 60 59 58 56 54 57 58 67
190 174 162 205 180 210 323 341 343 344 348 347 347 347 350 357 350 352 356 357 356 355 352 354 5 4 9 14 21 23 26 24 25 36 46 54 60 62 65 66 65 61 63 66
Wind_Speed_850mb
26 21 10 8 9 6 5 5 6 3 8 12 21 22 18 26 47 53 61 64 65 67 68 67 67 69 68 66 64 61 62 68 67 63 63 57 48 48 53 56 56 54 52 47
13 12 9 8 15 5 2 1 5 6 6 8 20 20 16 29 34 41 55 62 62 71 75 74 72 69 71 72 74 67 64 66 65 64 61 61 59 56 56 60 62 63 58 52
14 8 11 6 10 22 7 4 9 17 6 7 26 10 2 11 30 52 53 53 62 65 73 91 97 94 91 84 79 74 72 74 73 67 66 62 65 70 72 71 68 63 55 57
14 15 9 11 12 13 9 4 20 21 7 3 5 5 8 17 26 51 61 73 77 90 91 84 86 90 87 93 90 86 84 81 76 73 73 71 72 73 73 70 69 63 57 53
1 13 18 14 8 9 12 33 13 2 6 6 6 6 9 10 37 44 62 70 72 74 73 75 77 86 97 94 95 94 92 88 86 83 78 76 75 73 75 78 77 75 75 73
6 8 8 5 7 2 34 10 5 3 2 4 8 9 8 16 32 41 56 70 77 86 92 99 105 102 99 100 100 98 101 100 96 87 89 86 84 83 80 77 76 76 75 74
11 6 12 12 9 10 22 15 8 7 7 7 9 7 4 17 31 38 49 73 82 81 82 88 94 104 109 108 104 103 99 100 95 96 96 90 88 89 89 85 83 80 79 78
9 8 15 27 8 7 10 11 6 11 12 15 17 4 5 17 48 78 75 77 84 87 90 92 95 99 103 107 109 108 103 102 100 96 96 92 88 89 86 84 85 88 83 83
8 4 3 19 22 8 10 13 4 8 3 6 10 3 8 33 65 75 85 93 97 100 101 103 107 104 104 107 108 105 104 103 102 99 94 93 89 81 87 81 83 84 85 85
3 7 4 6 6 29 17 7 5 9 13 14 6 9 11 38 49 59 79 94 100 102 104 109 110 110 112 109 106 104 101 100 100 95 95 92 88 84 82 82 80 79 78 76
2 3 2 6 15 7 10 7 9 6 2 5 11 11 4 33 42 43 78 91 93 100 106 108 113 112 111 108 106 105 104 102 108 102 97 94 88 84 80 80 77 73 74 70
5 5 5 5 3 19 9 6 4 6 6 2 1 12 7 55 60 61 84 91 98 103 109 112 112 111 112 111 112 109 110 109 109 106 101 94 86 79 74 67 64 60 57 58
1 5 3 6 3 6 10 7 7 8 4 2 2 15 51 65 62 84 86 97 101 104 109 114 115 114 114 117 119 119 117 118 113 108 104 99 89 79 73 67 63 58 58 60
4 5 5 5 2 2 3 6 5 7 2 5 16 39 47 49 51 89 94 98 99 103 107 114 117 116 117 121 123 126 128 126 120 113 105 98 92 86 77 65 61 58 56 56
6 5 2 7 7 2 3 4 3 4 5 4 28 37 40 38 63 81 88 94 96 104 111 113 117 119 121 124 126 131 129 128 119 111 106 97 85 78 67 56 54 52 51 52
5 4 3 5 7 5 4 4 5 2 5 16 25 36 26 72 69 75 90 90 91 103 110 115 116 119 126 127 128 135 131 124 114 112 106 88 75 63 59 64 61 55 49 31
5 5 5 1 4 4 3 4 7 8 9 18 13 18 70 70 75 79 87 79 96 102 110 115 116 115 122 126 129 127 125 118 113 105 81 72 72 68 60 70 82 77 59 20
7 6 5 2 0 5 3 5 9 16 21 9 12 38 52 68 80 77 61 86 97 103 108 112 114 117 125 128 130 127 121 115 108 85 76 75 73 69 76 88 90 91 91 77
14 8 6 4 1 3 1 1 5 5 14 8 24 58 59 71 72 62 87 104 98 99 103 106 108 114 120 126 129 123 120 114 96 92 76 65 60 73 82 87 87 88 73 82
16 17 7 4 3 1 5 7 11 11 6 6 42 55 65 65 35 48 108 103 102 102 100 107 109 110 117 123 123 118 116 108 101 93 78 65 63 67 76 83 85 88 100 102
5 6 6 3 3 9 10 14 11 6 9 56 48 56 55 41 50 82 96 104 99 99 98 101 104 107 114 118 117 113 105 100 94 90 79 67 63 65 70 75 84 89 97 102
7 8 4 5 4 6 7 1 3 6 37 46 54 59 55 68 80 83 92 96 102 103 103 102 102 106 109 109 109 102 100 92 79 81 87 75 71 69 72 78 80 88 94 101
2 8 6 11 6 4 6 10 4 26 38 45 49 56 60 72 81 87 93 94 98 90 92 95 99 101 101 101 97 95 90 76 64 74 81 87 85 85 84 86 85 89 89 90
4 8 3 4 1 6 13 13 7 36 40 40 43 53 61 70 78 83 88 90 98 91 87 93 95 97 100 96 90 87 78 69 60 63 70 76 79 82 81 81 82 83 84 84
5 17 8 5 11 7 11 17 29 34 31 41 47 52 58 65 70 75 81 83 95 87 82 88 87 87 90 87 84 80 73 69 58 51 56 62 66 71 81 90 84 81 78 77
21 15 8 6 10 3 9 25 28 28 36 40 47 58 57 58 67 71 75 75 90 87 81 86 78 79 82 79 76 72 69 66 61 54 50 52 58 60 61 65 74 76 75 75
Wind_Direction_850mb
32 60 48 28 355 300 259 240 297 19 33 74 99 109 74 54 40 27 17 8 359 354 347 342 340 339 338 342 341 335 333 333 331 322 326 324 308 292 285 287 292 298 304 297
41 57 334 274 348 337 264 241 352 311 47 71 127 107 85 52 39 23 11 1 352 349 346 346 343 341 341 340 342 338 333 330 330 325 321 317 313 302 295 287 289 292 292 291
83 334 328 8 12 12 8 52 343 300 327 56 129 166 338 2 15 13 7 357 355 349 346 349 350 349 347 345 342 338 333 329 326 325 319 310 301 297 295 293 293 290 283 281
70 3 13 22 49 17 330 314 315 294 221 214 188 297 37 354 359 1 359 356 351 351 346 343 343 341 339 340 339 335 332 328 325 323 320 316 311 303 297 296 291 287 281 274
341 21 15 20 340 0 273 314 301 264 187 136 165 280 11 340 358 352 353 349 343 339 337 334 335 335 339 341 338 335 331 328 327 322 320 316 310 304 301 296 293 287 286 283
54 45 57 285 304 26 310 332 83 77 159 163 123 3 57 21 346 339 345 348 343 340 338 339 341 337 334 333 332 333 331 324 323 316 313 310 310 309 306 300 299 295 290 289
348 36 339 12 348 10 15 352 337 330 345 357 14 347 117 17 353 339 337 344 342 337 333 330 330 330 329 328 325 321 318 314 314 313 310 306 303 302 301 302 300 297 296 293
29 320 15 343 51 309 21 29 49 313 312 318 345 322 73 20 344 354 344 338 337 337 335 330 327 326 324 323 322 323 320 316 315 312 307 305 302 297 294 290 291 293 291 292
13 272 187 60 43 358 354 35 350 280 8 302 324 9 118 348 358 346 340 339 338 335 333 329 329 328 325 325 324 323 320 317 315 312 309 305 302 295 293 287 287 283 284 287
179 324 52 4 20 34 72 339 5 23 346 315 357 294 332 354 350 340 339 333 331 330 331 330 329 328 326 327 325 323 320 316 313 312 311 307 302 297 295 292 286 282 280 275
57 87 33 55 23 354 7 33 41 117 53 290 314 322 163 344 345 329 329 328 328 328 328 328 327 328 329 329 327 323 322 320 320 319 322 317 315 312 307 297 295 289 284 275
9 120 48 98 87 75 71 85 71 96 306 65 207 276 268 341 330 329 326 327 328 330 328 328 329 330 332 331 329 326 327 325 325 327 325 324 323 322 316 310 304 302 294 291
126 33 2 171 259 39 56 49 86 94 88 252 319 292 326 325 331 332 330 329 326 329 328 330 332 333 333 331 331 330 329 331 334 332 329 328 326 324 322 316 311 303 297 294
106 79 111 204 85 190 19 81 75 82 75 267 265 301 318 328 333 328 328 325 325 329 331 332 332 333 333 332 332 333 333 337 337 337 334 331 332 328 322 315 306 299 291 285
70 101 43 76 70 116 127 93 74 137 219 226 309 306 309 323 323 321 323 325 328 331 332 333 332 333 333 333 334 336 337 342 346 345 346 347 347 345 341 334 322 311 295 279
9 137 102 70 351 189 129 340 1 202 253 273 296 301 317 319 324 329 327 325 328 331 332 331 333 334 335 334 335 339 343 350 355 355 352 352 355 354 351 350 340 339 324 301
64 98 54 3 1 106 58 240 312 310 282 292 304 321 320 326 332 328 319 327 331 332 332 333 334 333 334 334 339 341 349 357 359 357 3 11 9 8 16 25 21 24 35 63
111 85 58 227 297 28 170 247 251 285 289 290 312 320 324 317 318 318 333 332 333 334 333 335 336 336 337 341 348 353 358 0 0 3 13 17 18 31 39 37 36 52 64 63
65 110 76 81 258 344 323 311 308 337 306 215 332 324 329 326 324 332 340 339 333 333 335 336 338 337 340 350 356 359 3 5 9 16 20 17 35 41 40 40 45 56 63 68
60 64 109 93 71 258 207 271 340 158 284 213 336 326 326 335 338 325 332 334 333 339 341 341 342 342 350 358 1 4 7 11 12 14 29 36 42 50 52 52 52 56 62 62
20 16 96 113 238 285 246 301 338 47 295 324 330 324 324 321 314 315 328 336 344 341 343 346 346 347 356 3 7 10 15 18 20 29 33 39 48 56 62 65 68 70 75 76
183 132 160 101 57 330 193 341 102 283 312 320 332 330 325 326 331 334 338 342 348 345 345 350 347 353 3 9 12 19 20 22 27 40 44 47 51 55 61 67 70 75 79 78
286 190 179 176 214 167 276 246 299 344 327 327 330 336 342 340 339 342 342 346 349 346 345 350 351 355 7 13 19 20 21 24 32 46 48 52 57 60 62 63 67 69 73 74
226 194 157 70 173 233 310 315 319 332 330 336 341 343 344 342 346 344 347 350 351 351 347 350 356 359 4 13 21 24 22 24 35 49 56 56 55 60 61 65 66 66 68 70
174 156 164 272 271 297 100 4 336 337 345 344 345 347 348 345 348 348 353 353 354 349 348 352 360 1 6 12 20 24 24 23 28 43 54 58 60 59 58 56 54 57 58 67
190 174 162 205 180 210 323 341 343 344 348 347 347 347 350 357 350 352 356 357 356 355 352 354 5 4 9 14 21 23 26 24 25 36 46 54 60 62 65 66 65 61 63 66